MIRANDA (X-4)

Satellite information

Favourite Embed

Satellite Type and Status

PAYLOADIN ORBIT

Key statistics

Satellite MIRANDA (X-4) at a glance.

Uptime

18908

Days in orbit

Revolutions

≈ 14.5

Per day

Orbit

SSO

Sun Synchronous Orbit

Inclination

97.8

Latest

Satellite identification and parameters

Extended collection of information and parameters for MIRANDA (X-4).

Object identification

Identified? True

Debris? False

Object name: MIRANDA (X-4)

International designator: 1974-013A

Object number (NORAD): 7213

Object ID (CCSDS): 7213

Country: UNITED KINGDOM (UK)

Current information (Y/N): Y

RCS size: MEDIUM

Orbital parameters

Period: 99.591 minutes

Inclination: 97.824 deg

SMA: 7117.174 km

Apoapsis: 819.143 km

Periapsis: 658.935 km

RAAN: 211.198 deg

Eccentricy: 0.01125502

Argument of periapsis: 193.9515 deg

Mean anomaly: 165.8562 deg

Mean motion: 14.45910453 rev/day

Mean motion (dot): 0.00000867 rev/day2

B* drag term: 0.00023662213 1/REarth

Two-line elements (TLE)

Creation date: Dec. 12, 2025, 10:14 a.m.

Reference frame: TEME

Reference center: EARTH

Epoch: Dec. 12, 2025, 5:12 a.m. UTC

TLE line 0: 0 MIRANDA (X-4)

TLE line 1: 1 07213U 74013A 25346.21677709 .00000867 00000-0 23662-3 0 9990

TLE line 2: 2 07213 97.8240 211.1980 0112550 193.9515 165.8562 14.45910453692617

Live tracking on map

Real-time ground track for satellite MIRANDA (X-4).

In-orbit conjunctions

There are no conjunctions computed for MIRANDA (X-4), at the moment. Check back to stay up to date, as we update our databases every day.

Go to all conjunctions

Associated space launch

British experimental satellite designed to test a three-axis gyro system for attitude control.

MIRANDA (X-4) was lifted into orbit during the mission ‘Scout D-1 | Miranda’, on board a Scout D-1 space rocket.

The launch took place on March 9, 1974, 2:22 a.m. from Space Launch Complex 5.

For more information about the launch, click the button.

Launch to space Scout D-1 | Miranda
Scout D-1 | Miranda

Agency: N/A

Status: Launch Successful

Launch date: March 9, 1974, 2:22 a.m. UTC

Rocket: Scout D-1

Launch pad: Space Launch Complex 5

Location: Vandenberg SFB, CA, USA

...

Latest news about this satellite

There are no fresh news available about this satellite. Check back as we update our databases every day.


Newsletter sign-up

Weekly statistics, charts and insights to help you stay on top of the space industry.